| time (UTC) | temp C | wind direction | speed KPH | gust KPH | rain 1hr cm | rain 24hr cm | rain mn cm | humidity % | barometer mb |
| 20260906163012 | 23 | 132 | 1.6 | 4.8 | 0.00 | 0.00 | 0.00 | 69 | 1019.5 |
| 20260906161510 | 23 | 134 | 4.8 | 11.3 | 0.00 | 0.00 | 0.00 | 69 | 1019.5 |
| 20260906160007 | 23 | 135 | 0.0 | 8.0 | 0.00 | 0.00 | 0.00 | 69 | 1019.5 |
| 20260906154503 | 23 | 84 | 1.6 | 8.0 | 0.00 | 0.00 | 0.00 | 73 | 1019.6 |
| 20260906153001 | 22 | 96 | 0.0 | 3.2 | 0.00 | 0.00 | 0.00 | 76 | 1019.5 |
| 20260906151600 | 22 | 96 | 0.0 | 6.4 | 0.00 | 0.00 | 0.00 | 77 | 1019.7 |
| 20260906144604 | 22 | 145 | 0.0 | 3.2 | 0.00 | 0.00 | 0.00 | 79 | 1019.4 |
| 20260906143055 | 21 | 161 | 0.0 | 4.8 | 0.00 | 0.00 | 0.00 | 82 | 1019.4 |
| 20260906141552 | 21 | 170 | 0.0 | 1.6 | 0.00 | 0.00 | 0.00 | 84 | 1019.5 |
| 20260906140047 | 20 | 144 | 0.0 | 3.2 | 0.00 | 0.00 | 0.00 | 88 | 1019.6 |
| 20260906134548 | 19 | 92 | 0.0 | 3.2 | 0.00 | 0.00 | 0.00 | 93 | 1019.6 |
| 20260906133039 | 18 | 92 | 0.0 | 3.2 | 0.00 | 0.00 | 0.00 | 96 | 1019.4 |
| 20260906131537 | 18 | 89 | 0.0 | 3.2 | 0.00 | 0.00 | 0.00 | 98 | 1019.3 |
| 20260906130034 | 17 | 86 | 0.0 | 0.0 | 0.00 | 0.03 | 0.00 | 98 | 1019.3 |
| 20260906124530 | 16 | 87 | 0.0 | 1.6 | 0.00 | 0.03 | 0.00 | 98 | 1019.2 |
| 20260906123034 | 15 | 86 | 0.0 | 0.0 | 0.00 | 0.03 | 0.00 | 97 | 1019.0 |
| 20260906121538 | 14 | 88 | 0.0 | 1.6 | 0.00 | 0.03 | 0.00 | 97 | 1019.1 |
| 20260906120027 | 14 | 88 | 0.0 | 0.0 | 0.00 | 0.03 | 0.00 | 96 | 1018.7 |
| 20260906114530 | 14 | 88 | 0.0 | 0.0 | 0.00 | 0.03 | 0.00 | 96 | 1018.5 |
| 20260906113039 | 15 | 88 | 0.0 | 0.0 | 0.00 | 0.03 | 0.00 | 95 | 1018.2 |
| 20260906111522 | 16 | 88 | 0.0 | 0.0 | 0.00 | 0.03 | 0.00 | 98 | 1018.0 |
| 20260906110019 | 14 | 88 | 0.0 | 0.0 | 0.00 | 0.05 | 0.00 | 96 | 1017.9 |
| 20260906104527 | 14 | 88 | 0.0 | 0.0 | 0.00 | 0.05 | 0.00 | 96 | 1018.0 |
| 20260906103016 | 14 | 88 | 0.0 | 0.0 | 0.00 | 0.05 | 0.00 | 96 | 1017.8 |
| 20260906101516 | 14 | 88 | 0.0 | 0.0 | 0.00 | 0.05 | 0.00 | 96 | 1018.2 |
| 20260906100018 | 15 | 88 | 0.0 | 0.0 | 0.00 | 0.05 | 0.00 | 96 | 1018.1 |
| 20260906094512 | 15 | 88 | 0.0 | 0.0 | 0.00 | 0.05 | 0.00 | 96 | 1017.8 |
| 20260906093011 | 15 | 88 | 0.0 | 0.0 | 0.00 | 0.05 | 0.00 | 96 | 1017.6 |
| 20260906091523 | 15 | 88 | 0.0 | 0.0 | 0.00 | 0.05 | 0.00 | 96 | 1017.6 |
| 20260906090010 | 15 | 88 | 0.0 | 0.0 | 0.00 | 0.05 | 0.00 | 96 | 1017.6 |
| 20260906084509 | 15 | 88 | 0.0 | 0.0 | 0.00 | 0.05 | 0.00 | 96 | 1017.5 |
| 20260906083013 | 15 | 88 | 0.0 | 0.0 | 0.00 | 0.05 | 0.00 | 96 | 1017.5 |
| 20260906081511 | 15 | 88 | 0.0 | 0.0 | 0.00 | 0.05 | 0.00 | 96 | 1017.4 |
| 20260906080005 | 14 | 88 | 0.0 | 0.0 | 0.00 | 0.05 | 0.00 | 96 | 1017.4 |
| 20260906074503 | 13 | 88 | 0.0 | 0.0 | 0.00 | 0.05 | 0.00 | 95 | 1017.6 |
| 20260906073002 | 14 | 88 | 0.0 | 0.0 | 0.00 | 0.05 | 0.00 | 95 | 1017.6 |
| 20260906071501 | 13 | 88 | 0.0 | 0.0 | 0.00 | 0.05 | 0.00 | 95 | 1017.4 |
| 20260906070059 | 13 | 88 | 0.0 | 0.0 | 0.00 | 0.05 | 0.00 | 94 | 1017.3 |
| 20260906064558 | 14 | 88 | 0.0 | 0.0 | 0.00 | 0.05 | 0.00 | 94 | 1017.3 |
| 20260906063058 | 14 | 88 | 0.0 | 0.0 | 0.00 | 0.05 | 0.00 | 94 | 1017.1 |
| 20260906061607 | 14 | 88 | 0.0 | 0.0 | 0.00 | 0.05 | 0.00 | 94 | 1017.2 |
| 20260906060056 | 14 | 88 | 0.0 | 0.0 | 0.00 | 0.05 | 0.00 | 94 | 1017.2 |
| 20260906054557 | 14 | 88 | 0.0 | 0.0 | 0.00 | 0.05 | 0.00 | 93 | 1017.1 |
| 20260906053051 | 14 | 88 | 0.0 | 0.0 | 0.00 | 0.05 | 0.00 | 93 | 1016.8 |
| 20260906051600 | 14 | 88 | 0.0 | 0.0 | 0.00 | 0.05 | 0.00 | 93 | 1016.7 |
| 20260906050148 | 14 | 88 | 0.0 | 0.0 | 0.00 | 0.05 | 0.00 | 92 | 1016.5 |
| 20260906044546 | 15 | 88 | 0.0 | 0.0 | 0.00 | 0.05 | 0.05 | 91 | 1016.8 |
| 20260906043043 | 15 | 88 | 0.0 | 0.0 | 0.00 | 0.05 | 0.05 | 91 | 1016.6 |
| 20260906041543 | 15 | 88 | 0.0 | 0.0 | 0.00 | 0.05 | 0.05 | 91 | 1016.5 |
| 20260906040044 | 15 | 88 | 0.0 | 0.0 | 0.00 | 0.05 | 0.05 | 90 | 1016.4 |
| 20260906034537 | 16 | 88 | 0.0 | 0.0 | 0.00 | 0.05 | 0.05 | 90 | 1016.3 |
| 20260906033044 | 16 | 88 | 0.0 | 0.0 | 0.00 | 0.05 | 0.05 | 89 | 1016.2 |
| 20260906031533 | 16 | 88 | 0.0 | 0.0 | 0.00 | 0.05 | 0.05 | 88 | 1016.1 |
| 20260906030030 | 16 | 88 | 0.0 | 0.0 | 0.00 | 0.05 | 0.05 | 88 | 1016.1 |
| 20260906024528 | 17 | 88 | 0.0 | 0.0 | 0.00 | 0.05 | 0.05 | 88 | 1016.0 |
| 20260906023026 | 17 | 88 | 0.0 | 0.0 | 0.00 | 0.05 | 0.05 | 87 | 1016.2 |
| 20260906021526 | 17 | 88 | 0.0 | 0.0 | 0.00 | 0.05 | 0.05 | 88 | 1016.1 |
| 20260906020025 | 17 | 88 | 0.0 | 1.6 | 0.00 | 0.05 | 0.05 | 88 | 1016.1 |
| 20260906014523 | 17 | 88 | 0.0 | 0.0 | 0.00 | 0.05 | 0.05 | 86 | 1016.1 |
| 20260906013020 | 18 | 88 | 0.0 | 0.0 | 0.00 | 0.05 | 0.05 | 85 | 1015.8 |
| 20260906011515 | 19 | 88 | 0.0 | 0.0 | 0.00 | 0.05 | 0.05 | 83 | 1016.0 |
| 20260906010012 | 19 | 88 | 0.0 | 1.6 | 0.00 | 0.05 | 0.05 | 81 | 1015.8 |
| 20260906004509 | 20 | 88 | 0.0 | 1.6 | 0.00 | 0.05 | 0.05 | 80 | 1015.5 |
| 20260906003007 | 21 | 88 | 0.0 | 0.0 | 0.00 | 0.05 | 0.05 | 77 | 1015.6 |
| 20260906001505 | 22 | 88 | 0.0 | 1.6 | 0.00 | 0.05 | 0.05 | 73 | 1015.6 |
| 20260906000005 | 22 | 88 | 0.0 | 1.6 | 0.00 | 0.05 | 0.05 | 73 | 1015.4 |
| 20260905234505 | 23 | 91 | 0.0 | 4.8 | 0.00 | 0.05 | 0.05 | 72 | 1015.4 |
| 20260905233002 | 23 | 90 | 1.6 | 6.4 | 0.00 | 0.05 | 0.05 | 71 | 1015.6 |
| 20260905231502 | 24 | 70 | 0.0 | 4.8 | 0.00 | 0.05 | 0.05 | 71 | 1015.6 |
| 20260905230001 | 24 | 36 | 0.0 | 12.9 | 0.00 | 0.05 | 0.05 | 71 | 1015.6 |
| 20260905224607 | 24 | 319 | 1.6 | 9.7 | 0.00 | 0.05 | 0.05 | 72 | 1015.4 |
| 20260905223059 | 24 | 309 | 1.6 | 9.7 | 0.00 | 0.05 | 0.05 | 73 | 1015.3 |
| 20260905221604 | 24 | 360 | 0.0 | 8.0 | 0.00 | 0.05 | 0.05 | 74 | 1015.3 |
| 20260905220105 | 23 | 91 | 1.6 | 6.4 | 0.00 | 0.05 | 0.05 | 76 | 1015.2 |
| 20260905214554 | 23 | 52 | 0.0 | 4.8 | 0.00 | 0.05 | 0.05 | 78 | 1015.5 |
| 20260905213054 | 23 | 337 | 0.0 | 8.0 | 0.00 | 0.05 | 0.05 | 78 | 1015.4 |
| 20260905211616 | 23 | 360 | 0.0 | 8.0 | 0.00 | 0.05 | 0.05 | 81 | 1015.5 |
| 20260905210054 | 23 | 90 | 0.0 | 6.4 | 0.00 | 0.05 | 0.05 | 84 | 1015.4 |
| 20260905204555 | 22 | 344 | 0.0 | 6.4 | 0.00 | 0.05 | 0.05 | 84 | 1015.4 |
| 20260905203110 | 22 | 43 | 0.0 | 4.8 | 0.00 | 0.05 | 0.05 | 84 | 1015.2 |
| 20260905201547 | 23 | 17 | 0.0 | 4.8 | 0.00 | 0.05 | 0.05 | 84 | 1015.2 |
| 20260905200054 | 23 | 42 | 0.0 | 9.7 | 0.00 | 0.05 | 0.05 | 84 | 1015.3 |
| 20260905194543 | 22 | 99 | 1.6 | 8.0 | 0.00 | 0.05 | 0.05 | 85 | 1015.3 |
| 20260905193043 | 22 | 51 | 0.0 | 0.0 | 0.00 | 0.05 | 0.05 | 85 | 1015.4 |
| 20260905191543 | 22 | 51 | 0.0 | 6.4 | 0.00 | 0.05 | 0.05 | 84 | 1015.3 |
| 20260905190039 | 22 | 60 | 0.0 | 3.2 | 0.00 | 0.05 | 0.05 | 87 | 1015.4 |
| 20260905184537 | 22 | 60 | 0.0 | 4.8 | 0.00 | 0.05 | 0.05 | 87 | 1015.5 |
| 20260905183035 | 22 | 59 | 0.0 | 4.8 | 0.00 | 0.05 | 0.05 | 89 | 1015.6 |
| 20260905181545 | 22 | 51 | 0.0 | 3.2 | 0.00 | 0.05 | 0.05 | 89 | 1015.5 |
| 20260905180033 | 22 | 94 | 0.0 | 6.4 | 0.00 | 0.05 | 0.05 | 90 | 1015.4 |
| 20260905174541 | 21 | 92 | 0.0 | 6.4 | 0.00 | 0.05 | 0.05 | 91 | 1015.5 |
| 20260905173034 | 21 | 82 | 0.0 | 9.7 | 0.00 | 0.05 | 0.05 | 90 | 1015.5 |
| 20260905171539 | 21 | 50 | 0.0 | 6.4 | 0.00 | 0.05 | 0.05 | 92 | 1015.5 |
| 20260905170027 | 21 | 94 | 1.6 | 6.4 | 0.00 | 0.05 | 0.05 | 93 | 1015.7 |
| 20260905164533 | 21 | 89 | 0.0 | 8.0 | 0.00 | 0.05 | 0.05 | 95 | 1015.8 |